TimeCST,TemperatureF,Dew PointF,Humidity,Sea Level PressureIn,VisibilityMPH,Wind Direction,Wind SpeedMPH,Gust SpeedMPH,PrecipitationIn,Events,Conditions,WindDirDegrees,DateUTC
12:52 AM,52.0,46.9,83,29.91,10.0,SSE,8.1,-,N/A,,Clear,160,2013-02-27 06:52:00
1:52 AM,51.1,46.0,83,29.89,10.0,SSE,8.1,-,N/A,,Clear,160,2013-02-27 07:52:00
2:52 AM,50.0,45.0,83,29.89,10.0,SSE,5.8,-,N/A,,Clear,150,2013-02-27 08:52:00
3:52 AM,48.9,45.0,86,29.88,10.0,SE,5.8,-,N/A,,Clear,140,2013-02-27 09:52:00
4:52 AM,50.0,46.0,86,29.89,10.0,Calm,Calm,-,N/A,,Clear,0,2013-02-27 10:52:00
5:52 AM,50.0,46.9,89,29.89,10.0,SE,8.1,-,N/A,,Clear,140,2013-02-27 11:52:00
6:52 AM,51.1,48.0,89,29.92,10.0,East,3.5,-,N/A,,Clear,80,2013-02-27 12:52:00
7:52 AM,55.0,51.1,86,29.95,10.0,ESE,3.5,-,N/A,,Clear,120,2013-02-27 13:52:00
8:52 AM,64.9,55.9,73,29.99,10.0,South,5.8,-,N/A,,Clear,180,2013-02-27 14:52:00
9:52 AM,70.0,55.0,59,30.01,10.0,SW,10.4,-,N/A,,Clear,220,2013-02-27 15:52:00
10:52 AM,73.0,54.0,51,30.04,10.0,West,9.2,-,N/A,,Clear,260,2013-02-27 16:52:00
11:52 AM,75.0,52.0,44,30.04,10.0,WNW,11.5,-,N/A,,Clear,300,2013-02-27 17:52:00
12:52 PM,77.0,50.0,39,30.01,10.0,Variable,4.6,18.4,N/A,,Clear,0,2013-02-27 18:52:00
1:52 PM,79.0,46.9,32,29.99,10.0,Variable,5.8,-,N/A,,Clear,0,2013-02-27 19:52:00
2:52 PM,82.0,42.1,24,29.99,10.0,NNW,11.5,25.3,N/A,,Clear,340,2013-02-27 20:52:00
3:52 PM,82.4,37.4,20,29.99,10.0,North,16.1,24.2,N/A,,Clear,360,2013-02-27 21:52:00
4:52 PM,78.1,46.0,32,29.99,10.0,ENE,18.4,-,N/A,,Clear,70,2013-02-27 22:52:00
5:52 PM,73.0,43.0,34,30.02,10.0,NE,21.9,26.5,N/A,,Clear,40,2013-02-27 23:52:00
6:52 PM,66.9,46.0,47,30.05,10.0,NE,11.5,-,N/A,,Clear,50,2013-02-28 00:52:00
7:52 PM,63.0,50.0,63,30.10,10.0,NE,9.2,-,N/A,,Clear,50,2013-02-28 01:52:00
8:52 PM,63.0,46.0,54,30.13,10.0,NNE,11.5,-,N/A,,Clear,30,2013-02-28 02:52:00
9:52 PM,62.1,46.9,58,30.14,10.0,NE,13.8,-,N/A,,Clear,40,2013-02-28 03:52:00
10:52 PM,57.9,43.0,58,30.16,10.0,NNE,9.2,-,N/A,,Clear,30,2013-02-28 04:52:00
11:52 PM,59.0,45.0,60,30.14,10.0,NNE,11.5,-,N/A,,Clear,30,2013-02-28 05:52:00